Location: Ellingshausen
(50.5460°N, 10.4723°E)
Time: 07:03:50
(UTC+00:00)

COSMO-SKYMED 1 - Pass Details

Date: 18 January 2026
Orbit: 577 x 579 km, 97.9° (Epoch: 18 February)

Event Time Altitude Azimuth Distance (km) Brightness Sun altitude
Rises 05:58:26 0° 210° (SSW) 2,790 5.8 -11.1°
Reaches altitude 10° 06:01:21 10° 233° (SW) 1,897 4.7 -10.7°
Maximum altitude 06:03:50 16° 271° (W) 1,572 4.1 -10.3°
Enters shadow 06:05:04 14° 291° (WNW) 1,659 4.1 -10.1°
